CW7566 Weather Reports


Display with metric or nautical units.
time (UTC)temp
F
wind
direction
speed
MPH
gust
MPH
rain 1hr
in
rain 24hr
in
rain mn
in
humidity
%
barometer
mb
20260508205653 65 242 0.0 3.0 0.00 0.00 0.00 55 1017.1
20260508204647 65 217 0.0 4.0 0.00 0.00 0.00 53 1017.1
20260508203654 66 5 0.0 0.0 0.00 0.00 0.00 51 1017.2
20260508202704 65 5 0.0 0.0 0.00 0.00 0.00 57 1017.2
20260508201709 65 358 0.0 0.0 0.00 0.00 0.00 54 1017.3
20260508200657 64 276 0.0 0.0 0.00 0.00 0.00 55 1017.6
20260508194709 64 276 0.0 0.0 0.00 0.00 0.00 52 1017.7
20260508193659 65 276 0.0 4.0 0.00 0.00 0.00 53 1017.9
20260508192700 64 290 0.0 7.0 0.00 0.00 0.00 54 1018.2
20260508191711 65 0 1.0 3.0 0.00 0.00 0.00 50 1018.0
20260508190654 65 342 2.0 6.0 0.00 0.00 0.00 53 1018.5
20260508185710 65 177 2.0 5.0 0.00 0.00 0.00 50 1018.4
20260508184654 64 355 0.0 4.0 0.00 0.00 0.00 52 1018.5
20260508183708 64 352 3.0 7.0 0.00 0.00 0.00 53 1018.5
20260508182651 64 296 0.0 6.0 0.00 0.00 0.00 52 1018.7
20260508181702 63 318 3.0 6.0 0.00 0.00 0.00 53 1018.7
20260508180658 62 134 1.0 4.0 0.00 0.00 0.00 52 1018.7
20260508175656 62 289 3.0 5.0 0.00 0.00 0.00 58 1018.8
20260508174711 61 156 1.0 5.0 0.00 0.00 0.00 58 1019.1
20260508171645 59 275 0.0 3.0 0.00 0.00 0.00 56 1019.3
20260508170655 59 259 0.0 0.0 0.00 0.00 0.00 57 1019.2
20260508163704 57 329 0.0 0.0 0.00 0.00 0.00 58 1019.8
20260508162707 57 245 0.0 0.0 0.00 0.00 0.00 56 1019.8
20260508161649 56 331 0.0 0.0 0.00 0.00 0.00 56 1019.9
20260508160637 55 277 0.0 0.0 0.00 0.00 0.00 60 1020.1
20260508154654 54 273 0.0 0.0 0.00 0.00 0.00 61 1020.4
20260508153700 54 280 0.0 0.0 0.00 0.00 0.00 65 1020.5
20260508152701 53 288 0.0 0.0 0.00 0.00 0.00 66 1020.5
20260508150654 52 270 0.0 0.0 0.00 0.00 0.00 68 1020.5
20260508145652 51 213 0.0 0.0 0.00 0.00 0.00 69 1020.5
20260508143654 49 195 0.0 0.0 0.00 0.00 0.00 74 1020.7
20260508142703 49 195 0.0 0.0 0.00 0.00 0.00 78 1020.8
20260508141712 48 189 0.0 0.0 0.00 0.00 0.00 81 1020.9
20260508140703 47 187 0.0 0.0 0.00 0.00 0.00 85 1020.8
20260508135716 47 187 0.0 0.0 0.00 0.00 0.00 89 1020.8
20260508134645 46 130 0.0 0.0 0.00 0.00 0.00 90 1020.9
20260508133653 46 123 0.0 0.0 0.00 0.00 0.00 93 1020.8
20260508132707 45 123 0.0 0.0 0.00 0.00 0.00 94 1020.9
20260508131659 45 113 0.0 0.0 0.00 0.00 0.00 94 1020.9
20260508125706 44 111 0.0 0.0 0.00 0.00 0.00 95 1020.8
20260508124703 44 88 0.0 2.0 0.00 0.00 0.00 94 1020.7
20260508123714 43 65 0.0 0.0 0.00 0.00 0.00 92 1020.7
20260508122659 42 65 0.0 0.0 0.00 0.00 0.00 91 1020.5
20260508120722 42 65 0.0 0.0 0.00 0.05 0.00 89 1020.4
20260508114725 42 65 0.0 0.0 0.00 0.05 0.00 88 1020.1
20260508113719 42 65 0.0 0.0 0.00 0.05 0.00 87 1019.9
20260508112704 42 65 0.0 0.0 0.00 0.05 0.00 87 1019.8
20260508111719 42 65 0.0 0.0 0.00 0.24 0.00 86 1019.7
20260508110715 42 65 1.0 1.0 0.00 0.24 0.00 86 1019.5
20260508105657 42 65 0.0 2.0 0.00 0.24 0.00 85 1019.3
20260508103723 43 65 0.0 2.0 0.00 0.24 0.00 85 1019.1
20260508102713 43 65 0.0 4.0 0.00 0.24 0.00 84 1018.9
20260508101722 43 52 1.0 3.0 0.00 0.25 0.00 84 1018.8
20260508100702 43 47 0.0 3.0 0.00 0.25 0.00 83 1018.7
20260508095659 43 49 0.0 0.0 0.00 0.25 0.00 84 1018.6
20260508094723 44 49 0.0 1.0 0.00 0.25 0.00 83 1018.5
20260508093722 44 50 0.0 0.0 0.00 0.25 0.00 83 1018.5
20260508092658 44 50 1.0 2.0 0.00 0.25 0.00 82 1018.4
20260508091703 44 50 1.0 3.0 0.00 0.25 0.00 82 1018.4
20260508090716 44 50 0.0 4.0 0.00 0.25 0.00 82 1018.4
20260508085715 45 45 0.0 0.0 0.00 0.25 0.00 82 1018.4
20260508084722 45 45 0.0 2.0 0.00 0.25 0.00 82 1018.4
20260508080719 46 85 0.0 0.0 0.00 0.25 0.00 78 1018.1
20260508075711 46 85 0.0 0.0 0.00 0.25 0.00 76 1018.0
20260508074717 46 85 0.0 0.0 0.00 0.25 0.00 76 1017.8
20260508073730 47 85 0.0 0.0 0.00 0.25 0.00 75 1017.9
20260508072659 47 85 0.0 0.0 0.00 0.25 0.00 74 1017.6
20260508071722 47 84 0.0 0.0 0.00 0.25 0.00 76 1017.7
20260508070702 48 85 0.0 2.0 0.00 0.25 0.00 76 1017.7
20260508064731 49 84 0.0 2.0 0.00 0.25 0.00 73 1017.6
20260508063726 49 86 0.0 0.0 0.00 0.25 0.00 71 1017.6
20260508062733 50 86 0.0 0.0 0.00 0.25 0.00 71 1017.6
20260508060702 51 86 0.0 0.0 0.00 0.25 0.00 68 1017.4
20260508053651 52 146 0.0 7.0 0.00 0.25 0.00 67 1017.6
20260508052701 52 44 4.0 11.0 0.00 0.25 0.00 63 1017.5
20260508051709 51 71 4.0 8.0 0.00 0.38 0.00 65 1017.5
20260508050703 52 166 0.0 4.0 0.00 0.38 0.00 68 1017.7
20260508043659 52 243 5.0 11.0 0.00 0.38 0.00 63 1017.4
20260508042657 52 272 5.0 10.0 0.00 0.38 0.00 63 1017.4
20260508040656 52 276 3.0 9.0 0.00 0.41 0.00 65 1017.3
20260508034649 52 354 1.0 8.0 0.00 0.41 0.40 68 1017.5
20260508033721 52 355 1.0 11.0 0.00 0.41 0.40 68 1017.7
20260508032650 51 344 3.0 6.0 0.00 0.41 0.40 70 1017.8
20260508031714 51 279 1.0 7.0 0.00 0.41 0.40 73 1017.9
20260508030711 50 193 1.0 4.0 0.00 0.41 0.40 76 1017.9
20260508025650 50 125 0.0 2.0 0.00 0.41 0.40 77 1018.1
20260508024712 50 118 0.0 4.0 0.00 0.41 0.40 79 1017.7
20260508023707 50 203 0.0 3.0 0.00 0.41 0.40 79 1017.7
20260508022658 50 234 2.0 5.0 0.00 0.41 0.40 79 1017.5
20260508021721 50 65 0.0 2.0 0.00 0.44 0.40 78 1017.5
20260508020654 50 0 0.0 0.0 0.00 0.44 0.40 78 1017.4
20260508015708 50 0 0.0 5.0 0.00 0.44 0.40 77 1017.4
20260508014651 51 164 0.0 2.0 0.00 0.44 0.40 77 1017.1
20260508013700 51 173 0.0 0.0 0.00 0.44 0.40 77 1017.0
20260508012653 51 173 0.0 3.0 0.00 0.44 0.40 76 1016.8
20260508011718 52 198 0.0 0.0 0.00 0.51 0.40 75 1016.6
20260508010659 52 199 0.0 0.0 0.00 0.51 0.40 73 1016.6
20260508005700 52 198 0.0 0.0 0.00 0.51 0.40 73 1016.6
20260508004707 53 198 0.0 0.0 0.00 0.51 0.40 71 1016.6
20260508002702 53 198 2.0 7.0 0.00 0.51 0.40 71 1016.4
20260508001710 54 158 1.0 6.0 0.00 0.65 0.40 70 1016.2
20260508000701 54 0 0.0 8.0 0.00 0.65 0.40 66 1016.0
20260507235716 54 26 5.0 9.0 0.00 0.65 0.40 66 1016.1
20260507234714 55 296 3.0 9.0 0.00 0.65 0.40 68 1015.9
20260507233709 55 152 0.0 11.0 0.00 0.65 0.40 68 1015.8
20260507232715 55 36 4.0 12.0 0.00 0.65 0.40 65 1015.5
20260507231706 56 313 0.0 7.0 0.00 0.67 0.40 71 1015.4
20260507230704 56 4 5.0 10.0 0.00 0.67 0.40 69 1015.7
20260507225703 56 83 0.0 9.0 0.00 0.67 0.40 67 1015.7
20260507224720 57 66 2.0 13.0 0.00 0.67 0.40 67 1015.5
20260507221727 59 76 3.0 10.0 0.00 0.70 0.40 68 1015.0
20260507220702 60 175 3.0 8.0 0.00 0.70 0.40 66 1014.6
20260507215643 61 204 2.0 8.0 0.00 0.70 0.40 65 1014.7
20260507214700 61 33 8.0 13.0 0.00 0.70 0.40 64 1014.5
20260507213658 61 223 2.0 9.0 0.00 0.70 0.40 66 1014.0
20260507211712 62 187 6.0 10.0 0.00 0.70 0.40 65 1014.0
20260507210656 63 325 1.0 7.0 0.00 0.70 0.40 66 1014.1